Content
SEND FEEDBACK

Daily
Averages
Monthly
Summary
United States of America

ST. LOUIS - SAINT LOUIS UNIVERSITY, MISSOURI


Home > North America > United States > Missouri
Elevation: 177 meters     Latitude: 38 38N     Longitude: 090 14W

WEATHER
 
SELECT A DAY
Number of Records: 186,434;   Date Range: 1/1/95 - 9/18/14
 
SHARE

PRINT THIS DATA

[ ← Previous Day ]
WEATHER ALMANAC - 24 JANUARY, 2013
[ Next Day → ]
[ °F ]   °C
Weather ElementAverageHighLow
Temperature-5.1 °C-2.8 °C (10:53 pm)-8.9 °C (6:53 am)
Dewpoint-14 °C-11.1 °C (1:53 am)-16.7 °C (7:53 am)
Humidity51 %68 % (6:53 am)43 % (4:53 pm)
Barometer1032.2 hPa1037.3 hPa (9:53 am)1025.1 hPa (11:53 pm)
Wind Speed18.3 km/h29.6 km/h (1:53 am)
Wind Gust37 km/h (1:53 am)
Weather ElementAverage
Visibility16.1 km
Wind DirectionESE (105.7 °)

Weather ElementTotal
Precipitation---
Heating Degree Days24.2 (Base 18.3)
Averaged from 23 records on 24 January, 2013
WEATHER CONDITIONS BREAKOUT
WIND DIRECTION BREAKOUT
WEATHER BY HOUR - 24 JANUARY, 2013
[ °F ]   °C
Local TimeTemperatureDewpointHumidityBarometerVisibilityWind DirectionWind SpeedGust SpeedPrecipitationEventsConditions
1:53 AM-3.9 °C-11.1 °C58 %1030.5 hPa16.1 kmNorth (360°)29.6 km/h37 km/hClear
2:53 AM-6.1 °C-13.9 °C55 %1032.2 hPa16.1 kmNorth (350°)25.9 km/hClear
3:53 AM-6.7 °C-13.9 °C57 %1032.5 hPa16.1 kmNorth (10°)18.5 km/hClear
4:53 AM-7.8 °C-14.4 °C60 %1033.5 hPa16.1 kmNNE (20°)16.7 km/hClear
5:53 AM-8.3 °C-14.4 °C62 %1034.9 hPa16.1 kmNNE (20°)18.5 km/hClear
6:53 AM-8.9 °C-13.9 °C68 %1035.6 hPa16.1 kmNNE (30°)11.1 km/hClear
7:53 AM-8.9 °C-16.7 °C54 %1035.6 hPa16.1 kmNNE (30°)14.8 km/hPartly Cloudy
8:53 AM-7.8 °C-16.1 °C52 %1036.2 hPa16.1 kmNNE (30°)18.5 km/hClear
9:53 AM-7.2 °C-16.1 °C50 %1037.3 hPa16.1 kmNE (50°)22.2 km/hClear
10:53 AM-6.7 °C-15.6 °C50 %1037.3 hPa16.1 kmENE (70°)14.8 km/hClear
11:53 AM-5 °C-15.6 °C44 %1035.9 hPa16.1 kmEast (90°)13 km/h29.6 km/hClear
12:53 PM-3.9 °C-14.4 °C45 %1034.5 hPa16.1 kmEast (100°)22.2 km/hClear
1:53 PM-3.9 °C-14.4 °C45 %1033.2 hPa16.1 kmEast (100°)16.7 km/hClear
2:53 PM-3.3 °C-13.9 °C44 %1032.5 hPa16.1 kmEast (100°)20.4 km/hClear
3:53 PM-3.3 °C-13.9 °C44 %1031.5 hPa16.1 kmEast (100°)18.5 km/hOvercast
4:53 PM-3.3 °C-14.4 °C43 %1031.2 hPa16.1 kmEast (100°)14.8 km/hClear
5:53 PM-3.3 °C-13.3 °C47 %1030.8 hPa16.1 kmESE (110°)14.8 km/hClear
6:53 PM-3.9 °C-13.3 °C49 %1029.8 hPa16.1 kmESE (120°)20.4 km/h33.3 km/hClear
7:53 PM-3.9 °C-12.8 °C51 %1029.5 hPa16.1 kmESE (120°)18.5 km/hOvercast
8:53 PM-3.3 °C-12.8 °C49 %1028.1 hPa16.1 kmESE (120°)20.4 km/hOvercast
9:53 PM-3.3 °C-12.8 °C49 %1027.8 hPa16.1 kmSE (140°)16.7 km/hOvercast
10:53 PM-2.8 °C-12.2 °C49 %1026.1 hPa16.1 kmSE (130°)14.8 km/hOvercast
11:53 PM-2.8 °C-12.8 °C47 %1025.1 hPa16.1 kmSE (130°)18.5 km/hOvercast
Hourly data recorded from KCPS, located 0 kilometers away from St. Louis - Saint Louis University, Missouri







STORIES FROM OUR PARTNERS